Year,Month,Day,Hour,Minute,Value (Times are PST for temperature in C)
2012,09,21,00,00,11.40
2012,09,21,00,01,11.40
2012,09,21,00,02,11.30
2012,09,21,00,03,11.30
2012,09,21,00,04,11.40
2012,09,21,00,05,11.40
2012,09,21,00,06,11.30
2012,09,21,00,07,11.30
2012,09,21,00,08,11.30
2012,09,21,00,09,11.30
2012,09,21,00,10,11.40
2012,09,21,00,11,11.40
2012,09,21,00,12,11.40
2012,09,21,00,13,11.40
2012,09,21,00,14,11.30
2012,09,21,00,15,11.40
2012,09,21,00,16,11.40
2012,09,21,00,17,11.40
2012,09,21,00,18,11.40
2012,09,21,00,19,11.40
2012,09,21,00,20,11.40
2012,09,21,00,21,11.40
2012,09,21,00,22,11.40
2012,09,21,00,23,11.40
2012,09,21,00,24,11.40
2012,09,21,00,25,11.40
2012,09,21,00,26,11.40
2012,09,21,00,27,11.40
2012,09,21,00,28,11.40
2012,09,21,00,29,11.40
2012,09,21,00,30,11.40
2012,09,21,00,31,11.40
2012,09,21,00,32,11.40
2012,09,21,00,33,11.40
2012,09,21,00,34,11.40
2012,09,21,00,35,11.40
2012,09,21,00,36,11.40
2012,09,21,00,37,11.40
2012,09,21,00,38,11.40
2012,09,21,00,39,11.40
2012,09,21,00,40,11.40
2012,09,21,00,41,11.40
2012,09,21,00,42,11.40
2012,09,21,00,43,11.40
2012,09,21,00,44,11.40
2012,09,21,00,45,11.40
2012,09,21,00,46,11.40
2012,09,21,00,47,11.40
2012,09,21,00,48,11.40
2012,09,21,00,49,11.40
2012,09,21,00,50,11.40
2012,09,21,00,51,11.40
2012,09,21,00,52,11.40
2012,09,21,00,53,11.40
2012,09,21,00,54,11.40
2012,09,21,00,55,11.40
2012,09,21,00,56,11.40
2012,09,21,00,57,11.50
2012,09,21,00,58,11.50
2012,09,21,00,59,11.50
2012,09,21,01,00,11.50
2012,09,21,01,01,11.50
2012,09,21,01,02,11.50
2012,09,21,01,03,11.50
2012,09,21,01,04,11.50
2012,09,21,01,05,11.50
2012,09,21,01,06,11.50
2012,09,21,01,07,11.50
2012,09,21,01,08,11.50
2012,09,21,01,09,11.50
2012,09,21,01,10,11.50
2012,09,21,01,11,11.50
2012,09,21,01,12,11.50
2012,09,21,01,13,11.50
2012,09,21,01,14,11.50
2012,09,21,01,15,11.50
2012,09,21,01,16,11.60
2012,09,21,01,17,11.60
2012,09,21,01,18,11.60
2012,09,21,01,19,11.60
2012,09,21,01,20,11.60
2012,09,21,01,21,11.60
2012,09,21,01,22,11.60
2012,09,21,01,23,11.60
2012,09,21,01,24,11.60
2012,09,21,01,25,11.60
2012,09,21,01,26,11.60
2012,09,21,01,27,11.60
2012,09,21,01,28,11.60
2012,09,21,01,29,11.60
2012,09,21,01,30,11.60
2012,09,21,01,31,11.60
2012,09,21,01,32,11.60
2012,09,21,01,33,11.60
2012,09,21,01,34,11.60
2012,09,21,01,35,11.60
2012,09,21,01,36,11.60
2012,09,21,01,37,11.60
2012,09,21,01,38,11.70
2012,09,21,01,39,11.70
2012,09,21,01,40,11.70
2012,09,21,01,41,11.70
2012,09,21,01,42,11.70
2012,09,21,01,43,11.70
2012,09,21,01,44,11.70
2012,09,21,01,45,11.70
2012,09,21,01,46,11.70
2012,09,21,01,47,11.70
2012,09,21,01,48,11.70
2012,09,21,01,49,11.70
2012,09,21,01,50,11.70
2012,09,21,01,51,11.70
2012,09,21,01,52,11.70
2012,09,21,01,53,11.70
2012,09,21,01,54,11.70
2012,09,21,01,55,11.70
2012,09,21,01,56,11.70
2012,09,21,01,57,11.70
2012,09,21,01,58,11.70
2012,09,21,01,59,11.70
2012,09,21,02,00,11.70
2012,09,21,02,01,11.70
2012,09,21,02,02,11.70
2012,09,21,02,03,11.70
2012,09,21,02,04,11.70
2012,09,21,02,05,11.70
2012,09,21,02,06,11.70
2012,09,21,02,07,11.70
2012,09,21,02,08,11.70
2012,09,21,02,09,11.70
2012,09,21,02,10,11.70
2012,09,21,02,11,11.70
2012,09,21,02,12,11.80
2012,09,21,02,13,11.80
2012,09,21,02,14,11.80
2012,09,21,02,15,11.80
2012,09,21,02,16,11.80
2012,09,21,02,17,11.80
2012,09,21,02,18,11.80
2012,09,21,02,19,11.80
2012,09,21,02,20,11.80
2012,09,21,02,21,11.80
2012,09,21,02,22,11.80
2012,09,21,02,23,11.80
2012,09,21,02,24,11.80
2012,09,21,02,25,11.80
2012,09,21,02,26,11.80
2012,09,21,02,27,11.80
2012,09,21,02,28,11.80
2012,09,21,02,29,11.80
2012,09,21,02,30,11.80
2012,09,21,02,31,11.80
2012,09,21,02,32,11.80
2012,09,21,02,33,11.80
2012,09,21,02,34,11.80
2012,09,21,02,35,11.90
2012,09,21,02,36,11.90
2012,09,21,02,37,11.90
2012,09,21,02,38,11.90
2012,09,21,02,39,12.00
2012,09,21,02,40,12.00
2012,09,21,02,41,12.00
2012,09,21,02,42,12.10
2012,09,21,02,43,12.10
2012,09,21,02,44,12.10
2012,09,21,02,45,12.10
2012,09,21,02,46,12.20
2012,09,21,02,47,12.20
2012,09,21,02,48,12.20
2012,09,21,02,49,12.20
2012,09,21,02,50,12.20
2012,09,21,02,51,12.20
2012,09,21,02,52,12.20
2012,09,21,02,53,12.30
2012,09,21,02,54,12.30
2012,09,21,02,55,12.30
2012,09,21,02,56,12.30
2012,09,21,02,57,12.30
2012,09,21,02,58,12.30
2012,09,21,02,59,12.30
2012,09,21,03,00,12.40
2012,09,21,03,01,12.40
2012,09,21,03,02,12.40
2012,09,21,03,03,12.40
2012,09,21,03,04,12.40
2012,09,21,03,05,12.50
2012,09,21,03,06,12.50
2012,09,21,03,07,12.50
2012,09,21,03,08,12.50
2012,09,21,03,09,12.50
2012,09,21,03,10,12.50
2012,09,21,03,11,12.50
2012,09,21,03,12,12.50
2012,09,21,03,13,12.50
2012,09,21,03,14,12.50
2012,09,21,03,15,12.50
2012,09,21,03,16,12.60
2012,09,21,03,17,12.60
2012,09,21,03,18,12.60
2012,09,21,03,19,12.60
2012,09,21,03,20,12.60
2012,09,21,03,21,12.60
2012,09,21,03,22,12.60
2012,09,21,03,23,12.60
2012,09,21,03,24,12.60
2012,09,21,03,25,12.70
2012,09,21,03,26,12.70
2012,09,21,03,27,12.70
2012,09,21,03,28,12.70
2012,09,21,03,29,12.70
2012,09,21,03,30,12.70
2012,09,21,03,31,12.70
2012,09,21,03,32,12.70
2012,09,21,03,33,12.80
2012,09,21,03,34,12.80
2012,09,21,03,35,12.80
2012,09,21,03,36,12.80
2012,09,21,03,37,12.80
2012,09,21,03,38,12.80
2012,09,21,03,39,12.80
2012,09,21,03,40,12.80
2012,09,21,03,41,12.80
2012,09,21,03,42,12.80
2012,09,21,03,43,12.80
2012,09,21,03,44,12.80
2012,09,21,03,45,12.80
2012,09,21,03,46,12.80
2012,09,21,03,47,12.80
2012,09,21,03,48,12.80
2012,09,21,03,49,12.80
2012,09,21,03,50,12.80
2012,09,21,03,51,12.80
2012,09,21,03,52,12.80
2012,09,21,03,53,12.80
2012,09,21,03,54,12.80
2012,09,21,03,55,12.80
2012,09,21,03,56,12.80
2012,09,21,03,57,12.80
2012,09,21,03,58,12.80
2012,09,21,03,59,12.80
2012,09,21,04,00,12.80
2012,09,21,04,01,12.80
2012,09,21,04,02,12.80
2012,09,21,04,03,12.90
2012,09,21,04,04,12.90
2012,09,21,04,05,12.90
2012,09,21,04,06,12.90
2012,09,21,04,07,13.00
2012,09,21,04,08,13.00
2012,09,21,04,09,13.00
2012,09,21,04,10,13.10
2012,09,21,04,11,13.10
2012,09,21,04,12,13.10
2012,09,21,04,13,13.10
2012,09,21,04,14,13.10
2012,09,21,04,15,13.10
2012,09,21,04,16,13.10
2012,09,21,04,17,13.10
2012,09,21,04,18,13.10
2012,09,21,04,19,13.10
2012,09,21,04,20,13.10
2012,09,21,04,21,13.10
2012,09,21,04,22,13.10
2012,09,21,04,23,13.20
2012,09,21,04,24,13.20
2012,09,21,04,25,13.20
2012,09,21,04,26,13.20
2012,09,21,04,27,13.20
2012,09,21,04,28,13.20
2012,09,21,04,29,13.20
2012,09,21,04,30,13.20
2012,09,21,04,31,13.20
2012,09,21,04,32,13.20
2012,09,21,04,33,13.20
2012,09,21,04,34,13.20
2012,09,21,04,35,13.20
2012,09,21,04,36,13.20
2012,09,21,04,37,13.20
2012,09,21,04,38,13.20
2012,09,21,04,39,13.20
2012,09,21,04,40,13.20
2012,09,21,04,41,13.20
2012,09,21,04,42,13.30
2012,09,21,04,43,13.30
2012,09,21,04,44,13.30
2012,09,21,04,45,13.30
2012,09,21,04,46,13.30
2012,09,21,04,47,13.30
2012,09,21,04,48,13.30
2012,09,21,04,49,13.30
2012,09,21,04,50,13.30
2012,09,21,04,51,13.30
2012,09,21,04,52,13.30
2012,09,21,04,53,13.30
2012,09,21,04,54,13.30
2012,09,21,04,55,13.30
2012,09,21,04,56,13.30
2012,09,21,04,57,13.30
2012,09,21,04,58,13.20
2012,09,21,04,59,13.20
2012,09,21,05,00,13.10
2012,09,21,05,01,13.10
2012,09,21,05,02,13.10
2012,09,21,05,03,13.00
2012,09,21,05,04,13.00
2012,09,21,05,05,12.90
2012,09,21,05,06,12.90
2012,09,21,05,07,12.90
2012,09,21,05,08,12.90
2012,09,21,05,09,12.90
2012,09,21,05,10,12.90
2012,09,21,05,11,12.90
2012,09,21,05,12,12.90
2012,09,21,05,13,12.90
2012,09,21,05,14,12.90
2012,09,21,05,15,12.80
2012,09,21,05,16,12.80
2012,09,21,05,17,12.80
2012,09,21,05,18,12.80
2012,09,21,05,19,12.80
2012,09,21,05,20,12.90
2012,09,21,05,21,12.90
2012,09,21,05,22,12.90
2012,09,21,05,23,12.90
2012,09,21,05,24,13.00
2012,09,21,05,25,13.00
2012,09,21,05,26,13.10
2012,09,21,05,27,13.10
2012,09,21,05,28,13.10
2012,09,21,05,29,13.10
2012,09,21,05,30,13.20
2012,09,21,05,31,13.20
2012,09,21,05,32,13.20
2012,09,21,05,33,13.20
2012,09,21,05,34,13.20
2012,09,21,05,35,13.20
2012,09,21,05,36,13.20
2012,09,21,05,37,13.30
2012,09,21,05,38,13.30
2012,09,21,05,39,13.30
2012,09,21,05,40,13.30
2012,09,21,05,41,13.20
2012,09,21,05,42,13.20
2012,09,21,05,43,13.20
2012,09,21,05,44,13.30
2012,09,21,05,45,13.30
2012,09,21,05,46,13.30
2012,09,21,05,47,13.30
2012,09,21,05,48,13.30
2012,09,21,05,49,13.20
2012,09,21,05,50,13.20
2012,09,21,05,51,13.20
2012,09,21,05,52,13.20
2012,09,21,05,53,13.20
2012,09,21,05,54,13.20
2012,09,21,05,55,13.20
2012,09,21,05,56,13.20
2012,09,21,05,57,13.30
2012,09,21,05,58,13.30
2012,09,21,05,59,13.30
2012,09,21,06,00,13.30
2012,09,21,06,01,13.20
2012,09,21,06,02,13.20
2012,09,21,06,03,13.30
2012,09,21,06,04,13.30
2012,09,21,06,05,13.30
2012,09,21,06,06,13.30
2012,09,21,06,07,13.30
2012,09,21,06,08,13.30
2012,09,21,06,09,13.40
2012,09,21,06,10,13.40
2012,09,21,06,11,13.40
2012,09,21,06,12,13.40
2012,09,21,06,13,13.40
2012,09,21,06,14,13.40
2012,09,21,06,15,13.40
2012,09,21,06,16,13.40
2012,09,21,06,17,13.40
2012,09,21,06,18,13.40
2012,09,21,06,19,13.40
2012,09,21,06,20,13.40
2012,09,21,06,21,13.40
2012,09,21,06,22,13.40
2012,09,21,06,23,13.40
2012,09,21,06,24,13.40
2012,09,21,06,25,13.40
2012,09,21,06,26,13.40
2012,09,21,06,27,13.40
2012,09,21,06,28,13.40
2012,09,21,06,29,13.40
2012,09,21,06,30,13.40
2012,09,21,06,31,13.40
2012,09,21,06,32,13.40
2012,09,21,06,33,13.50
2012,09,21,06,34,13.50
2012,09,21,06,35,13.50
2012,09,21,06,36,13.50
2012,09,21,06,37,13.50
2012,09,21,06,38,13.60
2012,09,21,06,39,13.60
2012,09,21,06,40,13.60
2012,09,21,06,41,13.60
2012,09,21,06,42,13.60
2012,09,21,06,43,13.60
2012,09,21,06,44,13.60
2012,09,21,06,45,13.60
2012,09,21,06,46,13.60
2012,09,21,06,47,13.60
2012,09,21,06,48,13.60
2012,09,21,06,49,13.70
2012,09,21,06,50,13.70
2012,09,21,06,51,13.70
2012,09,21,06,52,13.70
2012,09,21,06,53,13.70
2012,09,21,06,54,13.70
2012,09,21,06,55,13.70
2012,09,21,06,56,13.70
2012,09,21,06,57,13.70
2012,09,21,06,58,13.70
2012,09,21,06,59,13.70
2012,09,21,07,00,13.70
2012,09,21,07,01,13.80
2012,09,21,07,02,13.80
2012,09,21,07,03,13.80
2012,09,21,07,04,13.80
2012,09,21,07,05,13.80
2012,09,21,07,06,13.80
2012,09,21,07,07,13.80
2012,09,21,07,08,13.80
2012,09,21,07,09,13.80
2012,09,21,07,10,13.90
2012,09,21,07,11,13.90
2012,09,21,07,12,13.90
2012,09,21,07,13,13.90
2012,09,21,07,14,13.90
2012,09,21,07,15,13.90
2012,09,21,07,16,13.90
2012,09,21,07,17,13.90
2012,09,21,07,18,13.90
2012,09,21,07,19,13.90
2012,09,21,07,20,13.90
2012,09,21,07,21,13.90
2012,09,21,07,22,13.90
2012,09,21,07,23,13.90
2012,09,21,07,24,14.00
2012,09,21,07,25,14.00
2012,09,21,07,26,14.00
2012,09,21,07,27,14.00
2012,09,21,07,28,14.00
2012,09,21,07,29,14.00
2012,09,21,07,30,14.00
2012,09,21,07,31,14.00
2012,09,21,07,32,14.00
2012,09,21,07,33,14.00
2012,09,21,07,34,14.00
2012,09,21,07,35,14.00
2012,09,21,07,36,14.00
2012,09,21,07,37,14.00
2012,09,21,07,38,14.00
2012,09,21,07,39,14.00
2012,09,21,07,40,14.00
2012,09,21,07,41,14.00
2012,09,21,07,42,13.90
2012,09,21,07,43,13.90
2012,09,21,07,44,13.90
2012,09,21,07,45,13.90
2012,09,21,07,46,13.90
2012,09,21,07,47,14.00
2012,09,21,07,48,14.00
2012,09,21,07,49,14.00
2012,09,21,07,50,14.00
2012,09,21,07,51,14.00
2012,09,21,07,52,14.00
2012,09,21,07,53,14.10
2012,09,21,07,54,14.10
2012,09,21,07,55,14.10
2012,09,21,07,56,14.10
2012,09,21,07,57,14.10
2012,09,21,07,58,14.10
2012,09,21,07,59,14.10
2012,09,21,08,00,14.10
2012,09,21,08,01,14.10
2012,09,21,08,02,14.10
2012,09,21,08,03,14.10
2012,09,21,08,04,14.20
2012,09,21,08,05,14.20
2012,09,21,08,06,14.20
2012,09,21,08,07,14.20
2012,09,21,08,08,14.20
2012,09,21,08,09,14.20
2012,09,21,08,10,14.20
2012,09,21,08,11,14.20
2012,09,21,08,12,14.20
2012,09,21,08,13,14.20
2012,09,21,08,14,14.20
2012,09,21,08,15,14.20
2012,09,21,08,16,14.20
2012,09,21,08,17,14.20
2012,09,21,08,18,14.20
2012,09,21,08,19,14.20
2012,09,21,08,20,14.20
2012,09,21,08,21,14.20
2012,09,21,08,22,14.20
2012,09,21,08,23,14.20
2012,09,21,08,24,14.20
2012,09,21,08,25,14.20
2012,09,21,08,26,14.20
2012,09,21,08,27,14.20
2012,09,21,08,28,14.20
2012,09,21,08,29,14.20
2012,09,21,08,30,14.20
2012,09,21,08,31,14.20
2012,09,21,08,32,14.20
2012,09,21,08,33,14.30
2012,09,21,08,34,14.30
2012,09,21,08,35,14.30
2012,09,21,08,36,14.30
2012,09,21,08,37,14.30
2012,09,21,08,38,14.30
2012,09,21,08,39,14.30
2012,09,21,08,40,14.30
2012,09,21,08,41,14.30
2012,09,21,08,42,14.40
2012,09,21,08,43,14.40
2012,09,21,08,44,14.40
2012,09,21,08,45,14.40
2012,09,21,08,46,14.40
2012,09,21,08,47,14.40
2012,09,21,08,48,14.40
2012,09,21,08,49,14.40
2012,09,21,08,50,14.50
2012,09,21,08,51,14.50
2012,09,21,08,52,14.50
2012,09,21,08,53,14.50
2012,09,21,08,54,14.50
2012,09,21,08,55,14.30
2012,09,21,08,56,13.80
2012,09,21,08,57,13.40
2012,09,21,08,58,13.10
2012,09,21,08,59,12.80
2012,09,21,09,00,12.50
2012,09,21,09,01,12.30
2012,09,21,09,02,12.10
2012,09,21,09,03,12.00
2012,09,21,09,04,11.90
2012,09,21,09,05,11.80
2012,09,21,09,06,11.70
2012,09,21,09,07,11.70
2012,09,21,09,08,11.70
2012,09,21,09,09,11.60
2012,09,21,09,10,11.60
2012,09,21,09,11,11.60
2012,09,21,09,12,11.60
2012,09,21,09,13,11.60
2012,09,21,09,14,11.60
2012,09,21,09,15,11.70
2012,09,21,09,16,11.60
2012,09,21,09,17,11.60
2012,09,21,09,18,11.60
2012,09,21,09,19,11.50
2012,09,21,09,20,11.50
2012,09,21,09,21,11.40
2012,09,21,09,22,11.40
2012,09,21,09,23,11.40
2012,09,21,09,24,11.40
2012,09,21,09,25,11.40
2012,09,21,09,26,11.40
2012,09,21,09,27,11.40
2012,09,21,09,28,11.40
2012,09,21,09,29,11.40
2012,09,21,09,30,11.50
2012,09,21,09,31,11.50
2012,09,21,09,32,11.60
2012,09,21,09,33,11.60
2012,09,21,09,34,11.70
2012,09,21,09,35,11.80
2012,09,21,09,36,11.90
2012,09,21,09,37,11.90
2012,09,21,09,38,11.90
2012,09,21,09,39,12.00
2012,09,21,09,40,12.00
2012,09,21,09,41,12.10
2012,09,21,09,42,12.10
2012,09,21,09,43,12.20
2012,09,21,09,44,12.20
2012,09,21,09,45,12.20
2012,09,21,09,46,12.30
2012,09,21,09,47,12.30
2012,09,21,09,48,12.30
2012,09,21,09,49,12.20
2012,09,21,09,50,12.20
2012,09,21,09,51,12.10
2012,09,21,09,52,12.10
2012,09,21,09,53,12.00
2012,09,21,09,54,11.90
2012,09,21,09,55,11.90
2012,09,21,09,56,11.80
2012,09,21,09,57,11.80
2012,09,21,09,58,11.80
2012,09,21,09,59,11.70
2012,09,21,10,00,11.70
2012,09,21,10,01,11.70
2012,09,21,10,02,11.70
2012,09,21,10,03,11.70
2012,09,21,10,04,11.70
2012,09,21,10,05,11.80
2012,09,21,10,06,11.80
2012,09,21,10,07,11.80
2012,09,21,10,08,11.90
2012,09,21,10,09,12.00
2012,09,21,10,10,12.00
2012,09,21,10,11,12.00
2012,09,21,10,12,12.10
2012,09,21,10,13,12.00
2012,09,21,10,14,12.00
2012,09,21,10,15,12.00
2012,09,21,10,16,11.90
2012,09,21,10,17,11.90
2012,09,21,10,18,11.90
2012,09,21,10,19,11.90
2012,09,21,10,20,11.90
2012,09,21,10,21,11.90
2012,09,21,10,22,11.90
2012,09,21,10,23,11.90
2012,09,21,10,24,11.80
2012,09,21,10,25,11.80
2012,09,21,10,26,11.80
2012,09,21,10,27,11.80
2012,09,21,10,28,11.80
2012,09,21,10,29,11.90
2012,09,21,10,30,11.90
2012,09,21,10,31,11.90
2012,09,21,10,32,11.90
2012,09,21,10,33,11.90
2012,09,21,10,34,12.00
2012,09,21,10,35,12.00
2012,09,21,10,36,12.00
2012,09,21,10,37,12.10
2012,09,21,10,38,12.10
2012,09,21,10,39,12.10
2012,09,21,10,40,12.00
2012,09,21,10,41,11.90
2012,09,21,10,42,11.90
2012,09,21,10,43,11.90
2012,09,21,10,44,12.00
2012,09,21,10,45,12.00
2012,09,21,10,46,12.00
2012,09,21,10,47,12.10
2012,09,21,10,48,12.10
2012,09,21,10,49,12.20
2012,09,21,10,50,12.20
2012,09,21,10,51,12.20
2012,09,21,10,52,12.20
2012,09,21,10,53,12.20
2012,09,21,10,54,12.20
2012,09,21,10,55,12.30
2012,09,21,10,56,12.30
2012,09,21,10,57,12.40
2012,09,21,10,58,12.50
2012,09,21,10,59,12.50
2012,09,21,11,00,12.60
2012,09,21,11,01,12.60
2012,09,21,11,02,12.60
2012,09,21,11,03,12.60
2012,09,21,11,04,12.70
2012,09,21,11,05,13.00
2012,09,21,11,06,13.20
2012,09,21,11,07,13.40
2012,09,21,11,08,13.70
2012,09,21,11,09,13.90
2012,09,21,11,10,14.10
2012,09,21,11,11,14.40
2012,09,21,11,12,14.60
2012,09,21,11,13,14.80
2012,09,21,11,14,15.00
2012,09,21,11,15,15.10
2012,09,21,11,16,15.20
2012,09,21,11,17,15.30
2012,09,21,11,18,15.40
2012,09,21,11,19,15.40
2012,09,21,11,20,15.40
2012,09,21,11,21,15.40
2012,09,21,11,22,15.50
2012,09,21,11,23,15.50
2012,09,21,11,24,15.60
2012,09,21,11,25,15.70
2012,09,21,11,26,15.70
2012,09,21,11,27,15.70
2012,09,21,11,28,15.80
2012,09,21,11,29,15.80
2012,09,21,11,30,15.80
2012,09,21,11,31,15.80
2012,09,21,11,32,15.90
2012,09,21,11,33,16.00
2012,09,21,11,34,16.00
2012,09,21,11,35,16.00
2012,09,21,11,36,16.00
2012,09,21,11,37,16.00
2012,09,21,11,38,16.00
2012,09,21,11,39,16.10
2012,09,21,11,40,16.10
2012,09,21,11,41,16.10
2012,09,21,11,42,16.10
2012,09,21,11,43,16.10
2012,09,21,11,44,16.10
2012,09,21,11,45,16.10
2012,09,21,11,46,16.10
2012,09,21,11,47,16.20
2012,09,21,11,48,16.20
2012,09,21,11,49,16.20
2012,09,21,11,50,16.20
2012,09,21,11,51,16.20
2012,09,21,11,52,16.20
2012,09,21,11,53,16.20
2012,09,21,11,54,16.20
2012,09,21,11,55,16.10
2012,09,21,11,56,16.20
2012,09,21,11,57,16.20
2012,09,21,11,58,16.20
2012,09,21,11,59,16.20
2012,09,21,12,00,16.30
2012,09,21,12,01,16.30
2012,09,21,12,02,16.40
2012,09,21,12,03,16.40
2012,09,21,12,04,16.40
2012,09,21,12,05,16.50
2012,09,21,12,06,16.50
2012,09,21,12,07,16.50
2012,09,21,12,08,16.60
2012,09,21,12,09,16.60
2012,09,21,12,10,16.60
2012,09,21,12,11,16.60
2012,09,21,12,12,16.50
2012,09,21,12,13,16.50
2012,09,21,12,14,16.50
2012,09,21,12,15,16.50
2012,09,21,12,16,16.50
2012,09,21,12,17,16.50
2012,09,21,12,18,16.50
2012,09,21,12,19,16.50
2012,09,21,12,20,16.50
2012,09,21,12,21,16.60
2012,09,21,12,22,16.70
2012,09,21,12,23,16.70
2012,09,21,12,24,16.80
2012,09,21,12,25,16.80
2012,09,21,12,26,16.80
2012,09,21,12,27,16.80
2012,09,21,12,28,16.90
2012,09,21,12,29,16.90
2012,09,21,12,30,16.90
2012,09,21,12,31,16.90
2012,09,21,12,32,16.90
2012,09,21,12,33,16.90
2012,09,21,12,34,17.00
2012,09,21,12,35,17.00
2012,09,21,12,36,17.00
2012,09,21,12,37,16.90
2012,09,21,12,38,17.00
2012,09,21,12,39,17.00
2012,09,21,12,40,17.00
2012,09,21,12,41,17.00
2012,09,21,12,42,17.10
2012,09,21,12,43,17.10
2012,09,21,12,44,17.10
2012,09,21,12,45,17.10
2012,09,21,12,46,17.10
2012,09,21,12,47,17.10
2012,09,21,12,48,17.10
2012,09,21,12,49,17.00
2012,09,21,12,50,17.00
2012,09,21,12,51,17.00
2012,09,21,12,52,16.90
2012,09,21,12,53,16.90
2012,09,21,12,54,16.90
2012,09,21,12,55,16.80
2012,09,21,12,56,16.90
2012,09,21,12,57,16.90
2012,09,21,12,58,17.00
2012,09,21,12,59,17.00
2012,09,21,13,00,17.00
2012,09,21,13,01,17.10
2012,09,21,13,02,17.10
2012,09,21,13,03,17.10
2012,09,21,13,04,17.10
2012,09,21,13,05,17.00
2012,09,21,13,06,16.90
2012,09,21,13,07,16.90
2012,09,21,13,08,16.90
2012,09,21,13,09,16.90
2012,09,21,13,10,16.90
2012,09,21,13,11,16.80
2012,09,21,13,12,16.90
2012,09,21,13,13,16.80
2012,09,21,13,14,16.80
2012,09,21,13,15,16.90
2012,09,21,13,16,16.90
2012,09,21,13,17,16.90
2012,09,21,13,18,16.90
2012,09,21,13,19,16.90
2012,09,21,13,20,16.90
2012,09,21,13,21,17.00
2012,09,21,13,22,16.90
2012,09,21,13,23,16.90
2012,09,21,13,24,16.90
2012,09,21,13,25,16.80
2012,09,21,13,26,16.70
2012,09,21,13,27,16.70
2012,09,21,13,28,16.70
2012,09,21,13,29,16.70
2012,09,21,13,30,16.60
2012,09,21,13,31,16.60
2012,09,21,13,32,16.70
2012,09,21,13,33,16.70
2012,09,21,13,34,16.70
2012,09,21,13,35,16.70
2012,09,21,13,36,16.70
2012,09,21,13,37,16.60
2012,09,21,13,38,16.60
2012,09,21,13,39,16.60
2012,09,21,13,40,16.60
2012,09,21,13,41,16.60
2012,09,21,13,42,16.50
2012,09,21,13,43,16.50
2012,09,21,13,44,16.50
2012,09,21,13,45,16.60
2012,09,21,13,46,16.60
2012,09,21,13,47,16.60
2012,09,21,13,48,16.60
2012,09,21,13,49,16.60
2012,09,21,13,50,16.70
2012,09,21,13,51,16.70
2012,09,21,13,52,16.70
2012,09,21,13,53,16.70
2012,09,21,13,54,16.70
2012,09,21,13,55,16.70
2012,09,21,13,56,16.70
2012,09,21,13,57,16.70
2012,09,21,13,58,16.60
2012,09,21,13,59,16.60
2012,09,21,14,00,16.60
2012,09,21,14,01,16.60
2012,09,21,14,02,16.60
2012,09,21,14,03,16.60
2012,09,21,14,04,16.60
2012,09,21,14,05,16.70
2012,09,21,14,06,16.70
2012,09,21,14,07,16.60
2012,09,21,14,08,16.60
2012,09,21,14,09,16.60
2012,09,21,14,10,16.50
2012,09,21,14,11,16.50
2012,09,21,14,12,16.50
2012,09,21,14,13,16.50
2012,09,21,14,14,16.50
2012,09,21,14,15,16.50
2012,09,21,14,16,16.50
2012,09,21,14,17,16.60
2012,09,21,14,18,16.60
2012,09,21,14,19,16.60
2012,09,21,14,20,16.70
2012,09,21,14,21,16.70
2012,09,21,14,22,16.70
2012,09,21,14,23,16.80
2012,09,21,14,24,16.80
2012,09,21,14,25,16.80
2012,09,21,14,26,16.90
2012,09,21,14,27,16.90
2012,09,21,14,28,17.00
2012,09,21,14,29,17.00
2012,09,21,14,30,17.10
2012,09,21,14,31,17.00
2012,09,21,14,32,17.00
2012,09,21,14,33,17.00
2012,09,21,14,34,17.10
2012,09,21,14,35,17.00
2012,09,21,14,36,17.00
2012,09,21,14,37,17.00
2012,09,21,14,38,17.10
2012,09,21,14,39,17.20
2012,09,21,14,40,17.20
2012,09,21,14,41,17.30
2012,09,21,14,42,17.30
2012,09,21,14,43,17.30
2012,09,21,14,44,17.40
2012,09,21,14,45,17.40
2012,09,21,14,46,17.50
2012,09,21,14,47,17.60
2012,09,21,14,48,17.70
2012,09,21,14,49,17.90
2012,09,21,14,50,17.90
2012,09,21,14,51,17.90
2012,09,21,14,52,17.80
2012,09,21,14,53,17.80
2012,09,21,14,54,17.80
2012,09,21,14,55,17.80
2012,09,21,14,56,17.90
2012,09,21,14,57,17.90
2012,09,21,14,58,17.80
2012,09,21,14,59,17.70
2012,09,21,15,00,17.70
2012,09,21,15,01,17.70
2012,09,21,15,02,17.70
2012,09,21,15,03,17.70
2012,09,21,15,04,17.70
2012,09,21,15,05,17.60
2012,09,21,15,06,17.60
2012,09,21,15,07,17.70
2012,09,21,15,08,17.70
2012,09,21,15,09,17.70
2012,09,21,15,10,17.60
2012,09,21,15,11,17.60
2012,09,21,15,12,17.50
2012,09,21,15,13,17.40
2012,09,21,15,14,17.30
2012,09,21,15,15,17.40
2012,09,21,15,16,17.30
2012,09,21,15,17,17.30
2012,09,21,15,18,17.20
2012,09,21,15,19,17.20
2012,09,21,15,20,17.20
2012,09,21,15,21,17.20
2012,09,21,15,22,17.20
2012,09,21,15,23,17.20
2012,09,21,15,24,17.30
2012,09,21,15,25,17.30
2012,09,21,15,26,17.30
2012,09,21,15,27,17.40
2012,09,21,15,28,17.40
2012,09,21,15,29,17.40
2012,09,21,15,30,17.40
2012,09,21,15,31,17.30
2012,09,21,15,32,17.20
2012,09,21,15,33,17.30
2012,09,21,15,34,17.40
2012,09,21,15,35,17.40
2012,09,21,15,36,17.40
2012,09,21,15,37,17.40
2012,09,21,15,38,17.40
2012,09,21,15,39,17.40
2012,09,21,15,40,17.40
2012,09,21,15,41,17.30
2012,09,21,15,42,17.20
2012,09,21,15,43,17.20
2012,09,21,15,44,17.20
2012,09,21,15,45,17.30
2012,09,21,15,46,17.50
2012,09,21,15,47,17.50
2012,09,21,15,48,17.50
2012,09,21,15,49,17.50
2012,09,21,15,50,17.50
2012,09,21,15,51,17.50
2012,09,21,15,52,17.50
2012,09,21,15,53,17.50
2012,09,21,15,54,17.60
2012,09,21,15,55,17.60
2012,09,21,15,56,17.70
2012,09,21,15,57,17.70
2012,09,21,15,58,17.70
2012,09,21,15,59,17.70
2012,09,21,16,00,17.70
2012,09,21,16,01,17.70
2012,09,21,16,02,17.80
2012,09,21,16,03,17.80
2012,09,21,16,04,17.80
2012,09,21,16,05,17.70
2012,09,21,16,06,17.70
2012,09,21,16,07,17.70
2012,09,21,16,08,17.70
2012,09,21,16,09,17.70
2012,09,21,16,10,17.70
2012,09,21,16,11,17.70
2012,09,21,16,12,17.70
2012,09,21,16,13,17.70
2012,09,21,16,14,17.70
2012,09,21,16,15,17.70
2012,09,21,16,16,17.70
2012,09,21,16,17,17.60
2012,09,21,16,18,17.60
2012,09,21,16,19,17.50
2012,09,21,16,20,17.50
2012,09,21,16,21,17.40
2012,09,21,16,22,17.40
2012,09,21,16,23,17.40
2012,09,21,16,24,17.40
2012,09,21,16,25,17.30
2012,09,21,16,26,17.20
2012,09,21,16,27,17.20
2012,09,21,16,28,17.10
2012,09,21,16,29,17.10
2012,09,21,16,30,17.10
2012,09,21,16,31,17.10
2012,09,21,16,32,17.20
2012,09,21,16,33,17.20
2012,09,21,16,34,17.20
2012,09,21,16,35,17.20
2012,09,21,16,36,17.20
2012,09,21,16,37,17.20
2012,09,21,16,38,17.10
2012,09,21,16,39,17.10
2012,09,21,16,40,17.10
2012,09,21,16,41,17.10
2012,09,21,16,42,17.10
2012,09,21,16,43,17.10
2012,09,21,16,44,17.00
2012,09,21,16,45,16.90
2012,09,21,16,46,16.90
2012,09,21,16,47,16.90
2012,09,21,16,48,16.90
2012,09,21,16,49,16.80
2012,09,21,16,50,16.80
2012,09,21,16,51,16.70
2012,09,21,16,52,16.70
2012,09,21,16,53,16.70
2012,09,21,16,54,16.70
2012,09,21,16,55,16.70
2012,09,21,16,56,16.80
2012,09,21,16,57,16.80
2012,09,21,16,58,16.80
2012,09,21,16,59,16.80
2012,09,21,17,00,16.80
2012,09,21,17,01,16.70
2012,09,21,17,02,16.70
2012,09,21,17,03,16.60
2012,09,21,17,04,16.60
2012,09,21,17,05,16.60
2012,09,21,17,06,16.60
2012,09,21,17,07,16.60
2012,09,21,17,08,16.50
2012,09,21,17,09,16.50
2012,09,21,17,10,16.50
2012,09,21,17,11,16.40
2012,09,21,17,12,16.40
2012,09,21,17,13,16.40
2012,09,21,17,14,16.40
2012,09,21,17,15,16.40
2012,09,21,17,16,16.40
2012,09,21,17,17,16.40
2012,09,21,17,18,16.40
2012,09,21,17,19,16.40